User: anonymous   Login
Location: Unspecified
(0.0000°N, 0.0000°E)
Time: 19:26:29
(UTC+00:00)
Language:

STARLINK-11562 [DTC] - Orbit

View from above orbital plane
View from above orbital plane
View from above satellite
View from above satellite

Ground track
Ground track

The orbit is defined by the following mean orbital elements,

1 62918U          26145.62166613 +.00000000 +00000-0 +12783-2 0 00001
2 62918  43.0009 243.7484 0001851 265.2412  94.8244 15.70829365    00
Epoch (UTC): 25 May 2026 14:55:11
Eccentricity: 0.0001851
inclination: 43.0009°
perigee height: 355 km
apogee height: 358 km
right ascension of ascending node: 243.7484°
argument of perigee: 265.2412°
revolutions per day: 15.70829365
mean anomaly at epoch: 94.8244°

The dashed part of the orbit path shows where the satellite is in the earth's shadow,  

DLR